Regional Weather Roundup
Issued by NWS

Home | Current Version | Previous Version | Text Only | Print | Product List | Glossary On
Versions: 1 2 3 4 5 6 7 8 9 10 11 12 13 14 15 16 17 18 19 20 21 22 23 24 25 26 27 28 29 30 31 32 33 34 35 36 37 38 39 40 41 42 43 44 45 46 47 48 49 50
000
ASUS43 KMPX 032310
RWRMN
WEATHER ROUNDUP FOR MINNESOTA
NATIONAL WEATHER SERVICE TWIN CITIES/CHANHASSEN MN
600 PM CDT WED JUN 03 2015


NOTE: "FAIR" INDICATES FEW OR NO CLOUDS BELOW 12,000 FEET WITH NO
SIGNIFICANT WEATHER AND/OR OBSTRUCTIONS TO VISIBILITY. N/A MEANS
CURRENT SKY AND/OR WEATHER CONDITIONS ARE NOT AVAILABLE.

MNZ060>063-068>070-040000-
   Twin Cities Metro

CITY           SKY/WX    TMP DP  RH WIND       PRES   REMARKS
TWIN CITIES    CLOUDY    66  62  87 E9        29.82F
ST PAUL        CLOUDY    66  62  87 SE7       29.83F
CRYSTAL        HVY RAIN  65  63  93 NW5       29.83R VSB 3/4
LAKEVILLE      CLOUDY    66  64  94 E7        29.82F
EDEN PRAIRIE   LGT RAIN  65  63  93 NW5       29.82F FOG
SOUTH ST PAUL  CLOUDY    67  63  86 SE3       29.82F
LAKE ELMO      CLOUDY    64  63  94 E7        29.84F
$$
MNZ001>005-007-008-013>017-022>024-027-028-040000-
   Northwest Minnesota

CITY           SKY/WX    TMP DP  RH WIND       PRES   REMARKS
BEMIDJI        CLOUDY    63  62  96 E5        29.85S FOG
HALLOCK        CLOUDY    57  54  88 N16G22    29.93S
ROSEAU         DRIZZLE   59  54  82 N8        29.91S
WARROAD        DRIZZLE   59  55  88 N9        29.91S
THIEF RVR FALL CLOUDY    61  59  94 N10       29.89R
CROOKSTON      DRIZZLE   61  59  94 N12       29.88S
FOSSTON        DRIZZLE   63  61  94 CALM      29.86S
DETROIT LAKES  CLOUDY    59  57  94 W5        29.89S FOG
MOORHEAD       CLOUDY    57  55  94 NW10      29.90R
PARK RAPIDS    CLOUDY    65  60  84 SW10      29.86R
MAHNOMEN       CLOUDY    63  62  98 W9        29.85S FOG
$$
MNZ006-009>011-018-025>026-040000-
   North Central Minnesota

CITY           SKY/WX    TMP DP  RH WIND       PRES   REMARKS
BAUDETTE       LGT RAIN  61  59  93 NE9       29.88R FOG
FLAG ISLAND    CLOUDY    63  55  77 N8        29.90S
INTL FALLS     LGT RAIN  61  60  97 E6        29.89R FOG
WASKISH        CLOUDY    64  63  94 E5        29.86S
BIG FORK       CLOUDY    63  61  94 E3        29.87S
LONGVILLE      CLOUDY    64  63  94 CALM      29.86R
GRAND RAPIDS   CLOUDY    61  59  94 E5        29.88S
CRANE LAKE     DRIZZLE   61  59  94 CALM      29.91S
ORR            CLOUDY    61  55  82 CALM      29.86F
COOK           CLOUDY    61  59  94 CALM      29.89S
WALKER         CLOUDY    64  62  94 SW8       29.85S FOG
$$
MNZ012-019>021-037-040000-
   Northeast Minnesota

CITY           SKY/WX    TMP DP  RH WIND       PRES   REMARKS
DULUTH         CLOUDY    61  59  93 CALM      29.88F FOG
ELY            CLOUDY    61  57  88 S3        29.90R
HIBBING        CLOUDY    62  60  93 CALM      29.89R
EVELETH        CLOUDY    61  61 100 CALM      29.91R
DULUTH HARBOR  CLOUDY    48  46  93 NE7       29.90F FOG
TWO HARBORS    LGT RAIN  63  57  82 CALM      29.88F
SILVER BAY     DRIZZLE   61  59  94 NE5       29.89F
GRAND MARAIS     N/A     48  46  93 E6        29.93R
G MARAIS ARPRT TSTM      55  54  94 SE3       29.93F
$$
MNZ029>031-032-039>041-046>048-054>057-064-040000-
   West Central Minnesota

CITY           SKY/WX    TMP DP  RH WIND       PRES   REMARKS
FERGUS FALLS   CLOUDY    61  61 100 NW9       29.90S
WHEATON        PTSUNNY   63  55  77 N6        29.91S
MORRIS         MOSUNNY   66  61  82 NW10      29.88S
ALEXANDRIA     CLOUDY    65  59  81 W13       29.89S
ELBOW LAKE     CLOUDY    62  57  83 NW13      29.89S
WADENA         CLOUDY    63  61  94 W8        29.87S
GLENWOOD       MOSUNNY   70  63  78 W10       29.89R
APPLETON       PTSUNNY   73  63  68 N10       29.87S
BENSON         PTSUNNY   70  61  73 N9        29.88S
ORTONVILLE     CLOUDY    68  57  68 NW9       29.89S
MADISON        MOSUNNY   70  61  73 W5        29.88F
WILLMAR        FAIR      73  64  73 W12       29.88S
$$
MNZ033>034-036-042>043-049>051-058-059-040000-
   Central Minnesota

CITY           SKY/WX    TMP DP  RH WIND       PRES   REMARKS
ST CLOUD       CLOUDY    63  62  97 NW5       29.86F
SAUK CENTRE    FAIR      70  63  77 W8        29.87F
PAYNESVILLE    CLOUDY    68  62  81 SW8       29.87F
AITKIN         LGT RAIN  63  57  82 CALM      29.86R
PINE RIVER     CLOUDY    66  61  82 SW6       29.89S
BRAINERD       LGT RAIN  63  62  97 SW6       29.86F
STAPLES        CLOUDY    72  61  68 SW7       29.86S
LONG PRAIRIE   PTSUNNY   70  63  78 W7        29.87F
LITTLE FALLS   CLOUDY    64  61  88 CALM      29.86F
LITCHFIELD     PTSUNNY   72  64  78 W6        29.87F
BUFFALO        RAIN      64  61  91 W5        29.86S
MAPLE LAKE     CLOUDY    64  63  94 W8        29.87R
$$
MNZ037-044-045-052-053-040000-
   East Central Minnesota

CITY           SKY/WX    TMP DP  RH WIND       PRES   REMARKS
PRINCETON      DRIZZLE   64  63  94 CALM      29.86S
MORA           LGT RAIN  61  57  88 CALM      29.88S
CAMBRIDGE      RAIN      64  57  77 CALM      29.84S
RUSH CITY      LGT RAIN  63  61  94 CALM      29.86F
MOOSE LAKE     DRIZZLE   63  61  94 CALM      29.85S
HINCKLEY       LGT RAIN  63  63 100 SE6       29.88R
CLOQUET        CLOUDY    61  59  94 E5        29.87F FOG
MCGREGOR       CLOUDY    63  61  94 N3        29.88R
$$
MNZ071>073-080-081-089-090-097-098-040000-
   Southwest Minnesota

CITY           SKY/WX    TMP DP  RH WIND       PRES   REMARKS
MONTEVIDEO     SUNNY     72  70  94 N6        29.88F
GRANITE FALLS  SUNNY     73  61  64 NW5       29.88F
CANBY          PTSUNNY   70  64  81 N6        29.89F
MARSHALL       CLOUDY    72  61  68 NE6       29.87S
REDWOOD FALLS  SUNNY     73  62  68 N5        29.86F
OLIVIA         MOSUNNY   70  61  73 NW8       29.86F
PIPESTONE      MOSUNNY   75  61  60 NW9       29.89S
WINDOM         MOSUNNY   72  61  68 N10       29.88F
WORTHINGTON    SUNNY     73  61  64 N7        29.88F
JACKSON        SUNNY     75  61  60 N10G17    29.88S
TRACY          SUNNY     74  62  65 N3        29.88S
SLAYTON        SUNNY     73  58  58 CALM      29.89S
$$
MNZ065>067-074>077-082>085-091>093-040000-
   South Central Minnesota

CITY           SKY/WX    TMP DP  RH WIND       PRES   REMARKS
MANKATO        CLOUDY    68  63  83 W13       29.84F
NEW ULM        MOSUNNY   70  63  78 NW8       29.86S
ST JAMES       MOSUNNY   73  63  68 NW12      29.87S
FAIRMONT       MOSUNNY   73  57  56 NW16      29.86S
GLENCOE        CLOUDY    67  65  94 W9        29.85S
FARIBAULT      CLOUDY    72  64  78 S7        29.82F
OWATONNA       CLOUDY    73  63  68 S8        29.82F
WASECA         CLOUDY    72  64  78 W17       29.85R
ALBERT LEA     PTSUNNY   75  64  69 S6        29.83F
$$
MNZ078>079-086>088-094>096-040000-
   Southeast Minnesota

CITY           SKY/WX    TMP DP  RH WIND       PRES   REMARKS
ROCHESTER      LGT RAIN  69  65  86 W6        29.85F
RED WING       LGT RAIN  66  63  88 E6        29.83F
STANTON        CLOUDY    69  64  84 E5        29.82S
DODGE CENTER   CLOUDY    70  64  83 S3        29.84F
WINONA         CLOUDY    73  61  64 SE6       29.84F
AUSTIN         CLOUDY    72  66  83 CALM      29.84S
PRESTON        LGT RAIN  73  62  68 SW12      29.85F
$$
ABBREVIATIONS USED IN REMARKS
   TC - TEMPERATURES IN CELSIUS
  WCI - WIND CHILL INDEX
   HX - HEAT INDEX
  VSB - VISIBILITY
$$


USA.gov is the U.S. government's official web portal to all federal, state and local government web resources and services.